Regional Weather Roundup
Issued by NWS

Home | Current Version | Previous Version | Graphics & Text | Print | Product List | Glossary On
Versions: 1 2 3 4 5 6 7 8 9 10 11 12 13 14 15 16 17 18 19 20 21 22 23 24 25 26 27 28 29 30 31 32 33 34 35 36 37 38 39 40 41 42 43 44 45 46 47 48 49 50
000
ASUS43 KMPX 291510
RWRMN
WEATHER ROUNDUP FOR MINNESOTA
NATIONAL WEATHER SERVICE TWIN CITIES/CHANHASSEN MN
1000 AM CDT FRI APR 29 2016


NOTE: "FAIR" INDICATES FEW OR NO CLOUDS BELOW 12,000 FEET WITH NO
SIGNIFICANT WEATHER AND/OR OBSTRUCTIONS TO VISIBILITY. N/A MEANS
CURRENT SKY AND/OR WEATHER CONDITIONS ARE NOT AVAILABLE.

MNZ060>063-068>070-291600-
   Twin Cities Metro

CITY           SKY/WX    TMP DP  RH WIND       PRES   REMARKS
TWIN CITIES    MOSUNNY   47  37  68 N12       30.18F
ST PAUL        MOSUNNY   46  37  71 N10       30.19F
CRYSTAL        MOSUNNY   47  36  65 N8        30.17F
BLAINE         MOSUNNY   46  36  66 N6        30.19S
EDEN PRAIRIE   MOSUNNY   47  38  71 N8        30.16S
SOUTH ST PAUL  MOSUNNY   46  39  77 N9        30.17F
LAKE ELMO      FAIR      45  37  76 N7        30.19S
$$
MNZ001>005-007-008-013>017-022>024-027-028-291600-
   Northwest Minnesota

CITY           SKY/WX    TMP DP  RH WIND       PRES   REMARKS
BEMIDJI        SUNNY     48  31  52 N9        30.19S
HALLOCK        SUNNY     54  28  37 E9        30.23S
ROSEAU         SUNNY     48  37  66 E9        30.24S
WARROAD        SUNNY     43  36  75 NE9       30.25S
THIEF RVR FALL CLOUDY    50  28  43 E9        30.23R
CROOKSTON      CLOUDY    52  30  43 E13       30.23S
FOSSTON        MOSUNNY   48  32  53 NE10      30.21S
DETROIT LAKES  SUNNY     48  37  66 CALM      30.19F
MOORHEAD       SUNNY     46  37  71 CALM      30.20S
PARK RAPIDS    SUNNY     50  33  52 CALM      30.18S
MAHNOMEN       FAIR      49  33  55 CALM      30.19S
$$
MNZ006-009>011-018-025>026-291600-
   North Central Minnesota

CITY           SKY/WX    TMP DP  RH WIND       PRES   REMARKS
BAUDETTE       MOSUNNY   50  30  46 NE10      30.22R
FLAG ISLAND    SUNNY     43  32  65 N8        30.24S
INTL FALLS     SUNNY     47  30  51 E13       30.22R
WASKISH        SUNNY     50  32  50 N9G17     30.21R
BIG FORK       SUNNY     48  32  53 NE7       30.18F
LONGVILLE      SUNNY     52  27  37 W3        30.18R
GRAND RAPIDS   SUNNY     48  27  43 CALM      30.20R
CRANE LAKE     CLOUDY    46  30  53 N6        30.23S
ORR            MOSUNNY   48  25  40 CALM      30.17S
COOK           CLOUDY    46  30  53 NE3       30.20S
WALKER         FAIR      49  33  53 CALM      30.18S
$$
MNZ012-019>021-037-291600-
   Northeast Minnesota

CITY           SKY/WX    TMP DP  RH WIND       PRES   REMARKS
DULUTH         SUNNY     47  28  47 SE8       30.18S
ELY            CLOUDY    43  30  61 N5        30.20S
HIBBING        SUNNY     46  26  45 MISG      30.19R
EVELETH        PTSUNNY   46  28  49 NE8       30.20S
DULUTH HARBOR  SUNNY     43  28  56 CALM      30.22S
TWO HARBORS    SUNNY     50  34  53 E7        30.18R
SILVER BAY     SUNNY     48  30  49 E6        30.18R
GRAND MARAIS     N/A     41  32  70 CALM      30.21R
G MARAIS ARPRT SUNNY     46  27  46 N8        30.18R
$$
MNZ029>031-032-039>041-046>048-054>057-064-291600-
   West Central Minnesota

CITY           SKY/WX    TMP DP  RH WIND       PRES   REMARKS
FERGUS FALLS   SUNNY     48  39  71 W7        30.19S
WHEATON        PTSUNNY   52  41  66 NW5       30.21F
MORRIS         SUNNY     48  39  71 N6        30.18F
ALEXANDRIA     MOSUNNY   47  37  68 W9        30.21R
ELBOW LAKE     FAIR      46  38  74 W5        30.21S
WADENA         SUNNY     46  37  71 W6        30.19S
GLENWOOD       MOSUNNY   45  39  81 W8        30.21S
APPLETON       SUNNY     48  37  66 NE7       30.17F
BENSON         SUNNY     46  37  71 N10G16    30.19F
ORTONVILLE     SUNNY     46  39  76 N7        30.17F
MADISON        MOSUNNY   46  39  76 NE8       30.18S
WILLMAR        FAIR      46  41  81 N14       30.19F
$$
MNZ033>034-036-042>043-049>051-058-059-291600-
   Central Minnesota

CITY           SKY/WX    TMP DP  RH WIND       PRES   REMARKS
ST CLOUD       SUNNY     46  34  62 CALM      30.20S
SAUK CENTRE    CLOUDY    43  38  84 N9        30.20F
PAYNESVILLE    PTSUNNY   45  42  88 NW10      30.20F
AITKIN         SUNNY     50  25  37 E6        30.18S
PINE RIVER     PTSUNNY   48  32  53 CALM      30.21S
BRAINERD         N/A    N/A N/A N/A MISG      30.19S
STAPLES        SUNNY     46  36  66 NW3       30.19S
LONG PRAIRIE   FAIR      45  37  76 NW6       30.20S
LITTLE FALLS   CLOUDY    45  32  61 S3        30.20S
LITCHFIELD     SUNNY     46  43  87 N13       30.18F
BUFFALO        MOSUNNY   44  37  75 N9        30.20F
MAPLE LAKE     MOSUNNY   46  41  83 N8        30.19F
HUTCHINSON     SUNNY     47  41  77 N12G18    30.18S
$$
MNZ037-044-045-052-053-291600-
   East Central Minnesota

CITY           SKY/WX    TMP DP  RH WIND       PRES   REMARKS
PRINCETON        N/A     45  36  70 CALM      30.21S
MORA           SUNNY     45  30  57 CALM      30.22S
CAMBRIDGE      SUNNY     46  34  61 CALM      30.18F
RUSH CITY      SUNNY     45  31  59 CALM      30.21S
MOOSE LAKE     SUNNY     46  28  49 NE3       30.18S
HINCKLEY       FAIR      46  32  57 NE6       30.19S
CLOQUET        CLOUDY    46  25  42 E7        30.18S
MCGREGOR       SUNNY     46  30  53 E6        30.20R
$$
MNZ071>073-080-081-089-090-097-098-291600-
   Southwest Minnesota

CITY           SKY/WX    TMP DP  RH WIND       PRES   REMARKS
MONTEVIDEO     PTSUNNY   48  43  81 E8        30.19F
GRANITE FALLS  CLOUDY    45  40  83 CALM      30.20F HAZE
CANBY          CLOUDY    47  42  85 NE7       30.18F
MARSHALL       CLOUDY    44  39  82 NE9       30.17F
REDWOOD FALLS  CLOUDY    44  37  76 NE7       30.17F
OLIVIA         PTSUNNY   45  37  76 N8        30.18S
PIPESTONE      CLOUDY    39  36  87 E9        30.12F
WINDOM         CLOUDY    39  37  93 N9        30.15F
WORTHINGTON    CLOUDY    37  35  92 N16       30.13F
JACKSON        CLOUDY    39  36  87 NE14      30.14S
TRACY          CLOUDY    41  38  89 NE8       30.16F
SLAYTON        CLOUDY    37  37 100 NE9       30.15F
$$
MNZ065>067-074>077-082>085-091>093-291600-
   South Central Minnesota

CITY           SKY/WX    TMP DP  RH WIND       PRES   REMARKS
MANKATO        MOSUNNY   45  36  70 N10       30.16F
NEW ULM        MOSUNNY   45  37  76 NE9       30.17F
ST JAMES       CLOUDY    37  34  87 N7        30.18S
FAIRMONT       CLOUDY    39  30  70 N14       30.13F
GLENCOE        MOSUNNY   46  42  84 N7        30.17R
FARIBAULT      MOSUNNY   45  37  76 VRB8      30.16S
OWATONNA       MOSUNNY   45  37  76 N9        30.15S
WASECA         MOSUNNY   45  37  76 N9        30.17S
ALBERT LEA     CLOUDY    43  39  87 N10       30.14S
$$
MNZ078>079-086>088-094>096-291600-
   Southeast Minnesota

CITY           SKY/WX    TMP DP  RH WIND       PRES   REMARKS
ROCHESTER      CLOUDY    40  38  93 NE13      30.14F
RED WING       MOSUNNY   45  39  81 NE7       30.16F
STANTON        MOSUNNY   46  38  73 N8        30.15S
DODGE CENTER   PTSUNNY   43  43 100 N12       30.14S
WINONA         CLOUDY    43  37  81 N7        30.17S
AUSTIN         CLOUDY    43  37  81 NE9       30.12F
PRESTON        CLOUDY    39  36  88 N10       30.12F
$$
ABBREVIATIONS USED IN REMARKS
   TC - TEMPERATURES IN CELSIUS
  WCI - WIND CHILL INDEX
   HX - HEAT INDEX
  VSB - VISIBILITY
$$




USA.gov is the U.S. government's official web portal to all federal, state and local government web resources and services.